Year,Month,Day,Hour,Minute,Value (Times are PST for temperature in C)
2016,04,15,00,00,7.70
2016,04,15,00,01,7.70
2016,04,15,00,02,7.70
2016,04,15,00,03,7.60
2016,04,15,00,04,7.60
2016,04,15,00,05,7.60
2016,04,15,00,06,7.60
2016,04,15,00,07,7.60
2016,04,15,00,08,7.60
2016,04,15,00,09,7.60
2016,04,15,00,10,7.60
2016,04,15,00,11,7.60
2016,04,15,00,12,7.60
2016,04,15,00,13,7.60
2016,04,15,00,14,7.60
2016,04,15,00,15,7.60
2016,04,15,00,16,7.50
2016,04,15,00,17,7.60
2016,04,15,00,18,7.50
2016,04,15,00,19,7.50
2016,04,15,00,20,7.50
2016,04,15,00,21,7.40
2016,04,15,00,22,7.40
2016,04,15,00,23,7.40
2016,04,15,00,24,7.40
2016,04,15,00,25,7.40
2016,04,15,00,26,7.40
2016,04,15,00,27,7.40
2016,04,15,00,28,7.40
2016,04,15,00,29,7.40
2016,04,15,00,30,7.40
2016,04,15,00,31,7.40
2016,04,15,00,32,7.30
2016,04,15,00,33,7.40
2016,04,15,00,34,7.30
2016,04,15,00,35,7.30
2016,04,15,00,36,7.40
2016,04,15,00,37,7.30
2016,04,15,00,38,7.30
2016,04,15,00,39,7.30
2016,04,15,00,40,7.30
2016,04,15,00,41,7.30
2016,04,15,00,42,7.30
2016,04,15,00,43,7.30
2016,04,15,00,44,7.30
2016,04,15,00,45,7.30
2016,04,15,00,46,7.30
2016,04,15,00,47,7.20
2016,04,15,00,48,7.20
2016,04,15,00,49,7.20
2016,04,15,00,50,7.20
2016,04,15,00,51,7.20
2016,04,15,00,52,7.20
2016,04,15,00,53,7.20
2016,04,15,00,54,7.10
2016,04,15,00,55,7.10
2016,04,15,00,56,7.10
2016,04,15,00,57,7.10
2016,04,15,00,58,7.10
2016,04,15,00,59,7.00
2016,04,15,01,00,7.00
2016,04,15,01,01,6.90
2016,04,15,01,02,6.90
2016,04,15,01,03,6.90
2016,04,15,01,04,6.90
2016,04,15,01,05,6.90
2016,04,15,01,06,6.90
2016,04,15,01,07,6.90
2016,04,15,01,08,6.90
2016,04,15,01,09,7.00
2016,04,15,01,10,7.00
2016,04,15,01,11,7.00
2016,04,15,01,12,7.00
2016,04,15,01,13,7.00
2016,04,15,01,14,7.00
2016,04,15,01,15,7.00
2016,04,15,01,16,7.00
2016,04,15,01,17,7.00
2016,04,15,01,18,6.90
2016,04,15,01,19,6.90
2016,04,15,01,20,6.90
2016,04,15,01,21,6.90
2016,04,15,01,22,6.90
2016,04,15,01,23,6.90
2016,04,15,01,24,6.90
2016,04,15,01,25,6.90
2016,04,15,01,26,6.90
2016,04,15,01,27,6.90
2016,04,15,01,28,6.90
2016,04,15,01,29,6.90
2016,04,15,01,30,6.90
2016,04,15,01,31,6.90
2016,04,15,01,32,6.90
2016,04,15,01,33,6.90
2016,04,15,01,34,6.90
2016,04,15,01,35,6.90
2016,04,15,01,36,6.90
2016,04,15,01,37,6.90
2016,04,15,01,38,7.00
2016,04,15,01,39,7.00
2016,04,15,01,40,7.00
2016,04,15,01,41,7.00
2016,04,15,01,42,7.10
2016,04,15,01,43,7.10
2016,04,15,01,44,7.10
2016,04,15,01,45,7.10
2016,04,15,01,46,7.10
2016,04,15,01,47,7.10
2016,04,15,01,48,7.10
2016,04,15,01,49,7.10
2016,04,15,01,50,7.00
2016,04,15,01,51,7.00
2016,04,15,01,52,6.90
2016,04,15,01,53,6.90
2016,04,15,01,54,6.90
2016,04,15,01,55,6.80
2016,04,15,01,56,6.80
2016,04,15,01,57,6.80
2016,04,15,01,58,6.80
2016,04,15,01,59,6.80
2016,04,15,02,00,6.70
2016,04,15,02,01,6.70
2016,04,15,02,02,6.70
2016,04,15,02,03,6.70
2016,04,15,02,04,6.60
2016,04,15,02,05,6.60
2016,04,15,02,06,6.60
2016,04,15,02,07,6.60
2016,04,15,02,08,6.50
2016,04,15,02,09,6.50
2016,04,15,02,10,6.50
2016,04,15,02,11,6.40
2016,04,15,02,12,6.40
2016,04,15,02,13,6.40
2016,04,15,02,14,6.50
2016,04,15,02,15,6.50
2016,04,15,02,16,6.50
2016,04,15,02,17,6.50
2016,04,15,02,18,6.50
2016,04,15,02,19,6.50
2016,04,15,02,20,6.50
2016,04,15,02,21,6.50
2016,04,15,02,22,6.50
2016,04,15,02,23,6.50
2016,04,15,02,24,6.50
2016,04,15,02,25,6.40
2016,04,15,02,26,6.40
2016,04,15,02,27,6.40
2016,04,15,02,28,6.40
2016,04,15,02,29,6.40
2016,04,15,02,30,6.40
2016,04,15,02,31,6.40
2016,04,15,02,32,6.30
2016,04,15,02,33,6.30
2016,04,15,02,34,6.30
2016,04,15,02,35,6.30
2016,04,15,02,36,6.30
2016,04,15,02,37,6.30
2016,04,15,02,38,6.30
2016,04,15,02,39,6.30
2016,04,15,02,40,6.30
2016,04,15,02,41,6.20
2016,04,15,02,42,6.20
2016,04,15,02,43,6.20
2016,04,15,02,44,6.20
2016,04,15,02,45,6.20
2016,04,15,02,46,6.20
2016,04,15,02,47,6.20
2016,04,15,02,48,6.20
2016,04,15,02,49,6.20
2016,04,15,02,50,6.20
2016,04,15,02,51,6.20
2016,04,15,02,52,6.20
2016,04,15,02,53,6.20
2016,04,15,02,54,6.20
2016,04,15,02,55,6.20
2016,04,15,02,56,6.20
2016,04,15,02,57,6.20
2016,04,15,02,58,6.20
2016,04,15,02,59,6.10
2016,04,15,03,00,6.20
2016,04,15,03,01,6.20
2016,04,15,03,02,6.20
2016,04,15,03,03,6.20
2016,04,15,03,04,6.20
2016,04,15,03,05,6.20
2016,04,15,03,06,6.20
2016,04,15,03,07,6.30
2016,04,15,03,08,6.30
2016,04,15,03,09,6.30
2016,04,15,03,10,6.20
2016,04,15,03,11,6.20
2016,04,15,03,12,6.20
2016,04,15,03,13,6.20
2016,04,15,03,14,6.20
2016,04,15,03,15,6.10
2016,04,15,03,16,6.10
2016,04,15,03,17,6.10
2016,04,15,03,18,6.10
2016,04,15,03,19,6.10
2016,04,15,03,20,6.00
2016,04,15,03,21,6.00
2016,04,15,03,22,6.00
2016,04,15,03,23,6.00
2016,04,15,03,24,6.00
2016,04,15,03,25,6.00
2016,04,15,03,26,5.90
2016,04,15,03,27,5.90
2016,04,15,03,28,5.90
2016,04,15,03,29,5.90
2016,04,15,03,30,5.90
2016,04,15,03,31,5.90
2016,04,15,03,32,5.90
2016,04,15,03,33,5.90
2016,04,15,03,34,5.90
2016,04,15,03,35,5.90
2016,04,15,03,36,5.90
2016,04,15,03,37,5.90
2016,04,15,03,38,5.90
2016,04,15,03,39,5.90
2016,04,15,03,40,5.90
2016,04,15,03,41,5.90
2016,04,15,03,42,5.90
2016,04,15,03,43,5.90
2016,04,15,03,44,5.90
2016,04,15,03,45,5.90
2016,04,15,03,46,5.90
2016,04,15,03,47,5.90
2016,04,15,03,48,5.90
2016,04,15,03,49,5.90
2016,04,15,03,50,5.90
2016,04,15,03,51,5.90
2016,04,15,03,52,5.90
2016,04,15,03,53,5.90
2016,04,15,03,54,5.90
2016,04,15,03,55,5.90
2016,04,15,03,56,5.90
2016,04,15,03,57,5.90
2016,04,15,03,58,5.90
2016,04,15,03,59,5.90
2016,04,15,04,00,5.90
2016,04,15,04,01,5.90
2016,04,15,04,02,5.90
2016,04,15,04,03,5.90
2016,04,15,04,04,5.80
2016,04,15,04,05,5.80
2016,04,15,04,06,5.80
2016,04,15,04,07,5.80
2016,04,15,04,08,5.80
2016,04,15,04,09,5.80
2016,04,15,04,10,5.80
2016,04,15,04,11,5.70
2016,04,15,04,12,5.70
2016,04,15,04,13,5.70
2016,04,15,04,14,5.70
2016,04,15,04,15,5.70
2016,04,15,04,16,5.70
2016,04,15,04,17,5.70
2016,04,15,04,18,5.70
2016,04,15,04,19,5.70
2016,04,15,04,20,5.60
2016,04,15,04,21,5.60
2016,04,15,04,22,5.60
2016,04,15,04,23,5.60
2016,04,15,04,24,5.60
2016,04,15,04,25,5.60
2016,04,15,04,26,5.60
2016,04,15,04,27,5.60
2016,04,15,04,28,5.60
2016,04,15,04,29,5.60
2016,04,15,04,30,5.60
2016,04,15,04,31,5.60
2016,04,15,04,32,5.60
2016,04,15,04,33,5.60
2016,04,15,04,34,5.60
2016,04,15,04,35,5.50
2016,04,15,04,36,5.50
2016,04,15,04,37,5.50
2016,04,15,04,38,5.50
2016,04,15,04,39,5.50
2016,04,15,04,40,5.50
2016,04,15,04,41,5.40
2016,04,15,04,42,5.40
2016,04,15,04,43,5.40
2016,04,15,04,44,5.40
2016,04,15,04,45,5.40
2016,04,15,04,46,5.50
2016,04,15,04,47,5.50
2016,04,15,04,48,5.60
2016,04,15,04,49,5.60
2016,04,15,04,50,5.60
2016,04,15,04,51,5.60
2016,04,15,04,52,5.60
2016,04,15,04,53,5.60
2016,04,15,04,54,5.60
2016,04,15,04,55,5.60
2016,04,15,04,56,5.60
2016,04,15,04,57,5.60
2016,04,15,04,58,5.60
2016,04,15,04,59,5.60
2016,04,15,05,00,5.60
2016,04,15,05,01,5.60
2016,04,15,05,02,5.60
2016,04,15,05,03,5.60
2016,04,15,05,04,5.60
2016,04,15,05,05,5.60
2016,04,15,05,06,5.60
2016,04,15,05,07,5.60
2016,04,15,05,08,5.60
2016,04,15,05,09,5.60
2016,04,15,05,10,5.60
2016,04,15,05,11,5.60
2016,04,15,05,12,5.60
2016,04,15,05,13,5.60
2016,04,15,05,14,5.60
2016,04,15,05,15,5.60
2016,04,15,05,16,5.60
2016,04,15,05,17,5.60
2016,04,15,05,18,5.60
2016,04,15,05,19,5.60
2016,04,15,05,20,5.60
2016,04,15,05,21,5.60
2016,04,15,05,22,5.60
2016,04,15,05,23,5.60
2016,04,15,05,24,5.60
2016,04,15,05,25,5.60
2016,04,15,05,26,5.60
2016,04,15,05,27,5.50
2016,04,15,05,28,5.50
2016,04,15,05,29,5.50
2016,04,15,05,30,5.40
2016,04,15,05,31,5.40
2016,04,15,05,32,5.40
2016,04,15,05,33,5.40
2016,04,15,05,34,5.40
2016,04,15,05,35,5.40
2016,04,15,05,36,5.30
2016,04,15,05,37,5.30
2016,04,15,05,38,5.30
2016,04,15,05,39,5.30
2016,04,15,05,40,5.30
2016,04,15,05,41,5.30
2016,04,15,05,42,5.30
2016,04,15,05,43,5.30
2016,04,15,05,44,5.20
2016,04,15,05,45,5.20
2016,04,15,05,46,5.20
2016,04,15,05,47,5.20
2016,04,15,05,48,5.20
2016,04,15,05,49,5.20
2016,04,15,05,50,5.30
2016,04,15,05,51,5.30
2016,04,15,05,52,5.30
2016,04,15,05,53,5.30
2016,04,15,05,54,5.30
2016,04,15,05,55,5.30
2016,04,15,05,56,5.30
2016,04,15,05,57,5.40
2016,04,15,05,58,5.40
2016,04,15,05,59,5.40
2016,04,15,06,00,5.50
2016,04,15,06,01,5.60
2016,04,15,06,02,5.60
2016,04,15,06,03,5.70
2016,04,15,06,04,5.80
2016,04,15,06,05,5.90
2016,04,15,06,06,5.90
2016,04,15,06,07,6.00
2016,04,15,06,08,6.00
2016,04,15,06,09,6.10
2016,04,15,06,10,6.10
2016,04,15,06,11,6.10
2016,04,15,06,12,6.20
2016,04,15,06,13,6.20
2016,04,15,06,14,6.20
2016,04,15,06,15,6.30
2016,04,15,06,16,6.40
2016,04,15,06,17,6.50
2016,04,15,06,18,6.60
2016,04,15,06,19,6.70
2016,04,15,06,20,6.70
2016,04,15,06,21,6.70
2016,04,15,06,22,6.70
2016,04,15,06,23,6.70
2016,04,15,06,24,6.60
2016,04,15,06,25,6.60
2016,04,15,06,26,6.60
2016,04,15,06,27,6.60
2016,04,15,06,28,6.70
2016,04,15,06,29,6.70
2016,04,15,06,30,6.80
2016,04,15,06,31,6.80
2016,04,15,06,32,6.90
2016,04,15,06,33,7.00
2016,04,15,06,34,7.10
2016,04,15,06,35,7.20
2016,04,15,06,36,7.30
2016,04,15,06,37,7.30
2016,04,15,06,38,7.40
2016,04,15,06,39,7.50
2016,04,15,06,40,7.40
2016,04,15,06,41,7.20
2016,04,15,06,42,7.10
2016,04,15,06,43,7.00
2016,04,15,06,44,6.90
2016,04,15,06,45,6.90
2016,04,15,06,46,6.80
2016,04,15,06,47,6.80
2016,04,15,06,48,6.80
2016,04,15,06,49,6.70
2016,04,15,06,50,6.70
2016,04,15,06,51,6.70
2016,04,15,06,52,6.60
2016,04,15,06,53,6.60
2016,04,15,06,54,6.60
2016,04,15,06,55,6.60
2016,04,15,06,56,6.60
2016,04,15,06,57,6.50
2016,04,15,06,58,6.50
2016,04,15,06,59,6.50
2016,04,15,07,00,6.50
2016,04,15,07,01,6.50
2016,04,15,07,02,6.50
2016,04,15,07,03,6.50
2016,04,15,07,04,6.40
2016,04,15,07,05,6.40
2016,04,15,07,06,6.40
2016,04,15,07,07,6.40
2016,04,15,07,08,6.40
2016,04,15,07,09,6.40
2016,04,15,07,10,6.40
2016,04,15,07,11,6.40
2016,04,15,07,12,6.40
2016,04,15,07,13,6.40
2016,04,15,07,14,6.40
2016,04,15,07,15,6.40
2016,04,15,07,16,6.50
2016,04,15,07,17,6.50
2016,04,15,07,18,6.50
2016,04,15,07,19,6.60
2016,04,15,07,20,6.60
2016,04,15,07,21,6.60
2016,04,15,07,22,6.60
2016,04,15,07,23,6.70
2016,04,15,07,24,6.70
2016,04,15,07,25,6.70
2016,04,15,07,26,6.70
2016,04,15,07,27,6.70
2016,04,15,07,28,6.80
2016,04,15,07,29,6.80
2016,04,15,07,30,6.80
2016,04,15,07,31,6.80
2016,04,15,07,32,6.80
2016,04,15,07,33,6.80
2016,04,15,07,34,6.80
2016,04,15,07,35,6.80
2016,04,15,07,36,6.80
2016,04,15,07,37,6.80
2016,04,15,07,38,6.80
2016,04,15,07,39,6.80
2016,04,15,07,40,6.80
2016,04,15,07,41,6.80
2016,04,15,07,42,6.80
2016,04,15,07,43,6.80
2016,04,15,07,44,6.80
2016,04,15,07,45,6.80
2016,04,15,07,46,6.90
2016,04,15,07,47,6.90
2016,04,15,07,48,7.00
2016,04,15,07,49,7.00
2016,04,15,07,50,7.10
2016,04,15,07,51,7.10
2016,04,15,07,52,7.20
2016,04,15,07,53,7.20
2016,04,15,07,54,7.20
2016,04,15,07,55,7.30
2016,04,15,07,56,7.30
2016,04,15,07,57,7.30
2016,04,15,07,58,7.40
2016,04,15,07,59,7.50
2016,04,15,08,00,7.60
2016,04,15,08,01,7.80
2016,04,15,08,02,7.90
2016,04,15,08,03,8.00
2016,04,15,08,04,8.20
2016,04,15,08,05,8.30
2016,04,15,08,06,8.50
2016,04,15,08,07,8.60
2016,04,15,08,08,8.70
2016,04,15,08,09,8.80
2016,04,15,08,10,8.90
2016,04,15,08,11,9.00
2016,04,15,08,12,9.10
2016,04,15,08,13,9.20
2016,04,15,08,14,9.30
2016,04,15,08,15,9.30
2016,04,15,08,16,9.40
2016,04,15,08,17,9.50
2016,04,15,08,18,9.60
2016,04,15,08,19,9.70
2016,04,15,08,20,9.80
2016,04,15,08,21,9.90
2016,04,15,08,22,10.00
2016,04,15,08,23,10.10
2016,04,15,08,24,10.10
2016,04,15,08,25,10.20
2016,04,15,08,26,10.30
2016,04,15,08,27,10.40
2016,04,15,08,28,10.50
2016,04,15,08,29,10.50
2016,04,15,08,30,10.60
2016,04,15,08,31,10.70
2016,04,15,08,32,10.80
2016,04,15,08,33,10.80
2016,04,15,08,34,10.90
2016,04,15,08,35,11.00
2016,04,15,08,36,11.00
2016,04,15,08,37,11.10
2016,04,15,08,38,11.10
2016,04,15,08,39,11.20
2016,04,15,08,40,11.20
2016,04,15,08,41,11.20
2016,04,15,08,42,11.30
2016,04,15,08,43,11.30
2016,04,15,08,44,11.30
2016,04,15,08,45,11.30
2016,04,15,08,46,11.30
2016,04,15,08,47,11.30
2016,04,15,08,48,11.30
2016,04,15,08,49,11.30
2016,04,15,08,50,11.30
2016,04,15,08,51,11.30
2016,04,15,08,52,11.30
2016,04,15,08,53,11.30
2016,04,15,08,54,11.30
2016,04,15,08,55,11.30
2016,04,15,08,56,11.40
2016,04,15,08,57,11.40
2016,04,15,08,58,11.50
2016,04,15,08,59,11.50
2016,04,15,09,00,11.60
2016,04,15,09,01,11.60
2016,04,15,09,02,11.70
2016,04,15,09,03,11.70
2016,04,15,09,04,11.80
2016,04,15,09,05,11.80
2016,04,15,09,06,11.90
2016,04,15,09,07,11.90
2016,04,15,09,08,12.00
2016,04,15,09,09,12.00
2016,04,15,09,10,12.10
2016,04,15,09,11,12.10
2016,04,15,09,12,12.20
2016,04,15,09,13,12.20
2016,04,15,09,14,12.30
2016,04,15,09,15,12.40
2016,04,15,09,16,12.40
2016,04,15,09,17,12.50
2016,04,15,09,18,12.60
2016,04,15,09,19,12.60
2016,04,15,09,20,12.70
2016,04,15,09,21,12.80
2016,04,15,09,22,12.90
2016,04,15,09,23,13.00
2016,04,15,09,24,13.10
2016,04,15,09,25,13.10
2016,04,15,09,26,13.20
2016,04,15,09,27,13.20
2016,04,15,09,28,13.20
2016,04,15,09,29,13.20
2016,04,15,09,30,13.20
2016,04,15,09,31,13.20
2016,04,15,09,32,13.20
2016,04,15,09,33,13.20
2016,04,15,09,34,13.20
2016,04,15,09,35,13.20
2016,04,15,09,36,13.20
2016,04,15,09,37,13.20
2016,04,15,09,38,13.20
2016,04,15,09,39,13.30
2016,04,15,09,40,13.30
2016,04,15,09,41,13.30
2016,04,15,09,42,13.40
2016,04,15,09,43,13.40
2016,04,15,09,44,13.40
2016,04,15,09,45,13.40
2016,04,15,09,46,13.40
2016,04,15,09,47,13.40
2016,04,15,09,48,13.30
2016,04,15,09,49,13.40
2016,04,15,09,50,13.40
2016,04,15,09,51,13.40
2016,04,15,09,52,13.40
2016,04,15,09,53,13.40
2016,04,15,09,54,13.40
2016,04,15,09,55,13.40
2016,04,15,09,56,13.40
2016,04,15,09,57,13.50
2016,04,15,09,58,13.50
2016,04,15,09,59,13.60
2016,04,15,10,00,13.60
2016,04,15,10,01,13.60
2016,04,15,10,02,13.60
2016,04,15,10,03,13.70
2016,04,15,10,04,13.70
2016,04,15,10,05,13.70
2016,04,15,10,06,13.70
2016,04,15,10,07,13.60
2016,04,15,10,08,13.60
2016,04,15,10,09,13.50
2016,04,15,10,10,13.50
2016,04,15,10,11,13.50
2016,04,15,10,12,13.40
2016,04,15,10,13,13.50
2016,04,15,10,14,13.50
2016,04,15,10,15,13.60
2016,04,15,10,16,13.60
2016,04,15,10,17,13.70
2016,04,15,10,18,13.70
2016,04,15,10,19,13.80
2016,04,15,10,20,13.70
2016,04,15,10,21,13.70
2016,04,15,10,22,13.60
2016,04,15,10,23,13.60
2016,04,15,10,24,13.50
2016,04,15,10,25,13.50
2016,04,15,10,26,13.40
2016,04,15,10,27,13.40
2016,04,15,10,28,13.40
2016,04,15,10,29,13.40
2016,04,15,10,30,13.40
2016,04,15,10,31,13.50
2016,04,15,10,32,13.50
2016,04,15,10,33,13.50
2016,04,15,10,34,13.60
2016,04,15,10,35,13.60
2016,04,15,10,36,13.60
2016,04,15,10,37,13.60
2016,04,15,10,38,13.70
2016,04,15,10,39,13.70
2016,04,15,10,40,13.60
2016,04,15,10,41,13.60
2016,04,15,10,42,13.60
2016,04,15,10,43,13.70
2016,04,15,10,44,13.70
2016,04,15,10,45,13.80
2016,04,15,10,46,13.80
2016,04,15,10,47,13.80
2016,04,15,10,48,13.90
2016,04,15,10,49,13.80
2016,04,15,10,50,13.70
2016,04,15,10,51,13.70
2016,04,15,10,52,13.60
2016,04,15,10,53,13.50
2016,04,15,10,54,13.50
2016,04,15,10,55,13.40
2016,04,15,10,56,13.40
2016,04,15,10,57,13.50
2016,04,15,10,58,13.60
2016,04,15,10,59,13.60
2016,04,15,11,00,13.70
2016,04,15,11,01,13.70
2016,04,15,11,02,13.80
2016,04,15,11,03,13.80
2016,04,15,11,04,13.80
2016,04,15,11,05,13.80
2016,04,15,11,06,13.70
2016,04,15,11,07,13.70
2016,04,15,11,08,13.70
2016,04,15,11,09,13.60
2016,04,15,11,10,13.60
2016,04,15,11,11,13.60
2016,04,15,11,12,13.60
2016,04,15,11,13,13.50
2016,04,15,11,14,13.60
2016,04,15,11,15,13.60
2016,04,15,11,16,13.50
2016,04,15,11,17,13.40
2016,04,15,11,18,13.30
2016,04,15,11,19,13.30
2016,04,15,11,20,13.30
2016,04,15,11,21,13.30
2016,04,15,11,22,13.30
2016,04,15,11,23,13.30
2016,04,15,11,24,13.40
2016,04,15,11,25,13.40
2016,04,15,11,26,13.40
2016,04,15,11,27,13.40
2016,04,15,11,28,13.40
2016,04,15,11,29,13.40
2016,04,15,11,30,13.40
2016,04,15,11,31,13.30
2016,04,15,11,32,13.30
2016,04,15,11,33,13.40
2016,04,15,11,34,13.40
2016,04,15,11,35,13.50
2016,04,15,11,36,13.60
2016,04,15,11,37,13.60
2016,04,15,11,38,13.60
2016,04,15,11,39,13.60
2016,04,15,11,40,13.60
2016,04,15,11,41,13.60
2016,04,15,11,42,13.60
2016,04,15,11,43,13.60
2016,04,15,11,44,13.60
2016,04,15,11,45,13.60
2016,04,15,11,46,13.60
2016,04,15,11,47,13.60
2016,04,15,11,48,13.50
2016,04,15,11,49,13.50
2016,04,15,11,50,13.40
2016,04,15,11,51,13.40
2016,04,15,11,52,13.40
2016,04,15,11,53,13.40
2016,04,15,11,54,13.50
2016,04,15,11,55,13.50
2016,04,15,11,56,13.60
2016,04,15,11,57,13.70
2016,04,15,11,58,13.70
2016,04,15,11,59,13.70
2016,04,15,12,00,13.70
2016,04,15,12,01,13.70
2016,04,15,12,02,13.70
2016,04,15,12,03,13.80
2016,04,15,12,04,13.90
2016,04,15,12,05,14.00
2016,04,15,12,06,13.90
2016,04,15,12,07,13.90
2016,04,15,12,08,13.80
2016,04,15,12,09,13.80
2016,04,15,12,10,13.70
2016,04,15,12,11,13.70
2016,04,15,12,12,13.80
2016,04,15,12,13,13.80
2016,04,15,12,14,13.80
2016,04,15,12,15,13.80
2016,04,15,12,16,13.90
2016,04,15,12,17,13.90
2016,04,15,12,18,13.80
2016,04,15,12,19,13.70
2016,04,15,12,20,13.70
2016,04,15,12,21,13.70
2016,04,15,12,22,13.80
2016,04,15,12,23,13.80
2016,04,15,12,24,13.80
2016,04,15,12,25,13.80
2016,04,15,12,26,13.70
2016,04,15,12,27,13.70
2016,04,15,12,28,13.70
2016,04,15,12,29,13.60
2016,04,15,12,30,13.60
2016,04,15,12,31,13.70
2016,04,15,12,32,13.70
2016,04,15,12,33,13.70
2016,04,15,12,34,13.70
2016,04,15,12,35,13.70
2016,04,15,12,36,13.70
2016,04,15,12,37,13.60
2016,04,15,12,38,13.60
2016,04,15,12,39,13.60
2016,04,15,12,40,13.50
2016,04,15,12,41,13.50
2016,04,15,12,42,13.50
2016,04,15,12,43,13.60
2016,04,15,12,44,13.70
2016,04,15,12,45,13.70
2016,04,15,12,46,13.70
2016,04,15,12,47,13.70
2016,04,15,12,48,13.80
2016,04,15,12,49,13.80
2016,04,15,12,50,13.80
2016,04,15,12,51,13.80
2016,04,15,12,52,13.80
2016,04,15,12,53,13.70
2016,04,15,12,54,13.70
2016,04,15,12,55,13.70
2016,04,15,12,56,13.70
2016,04,15,12,57,13.70
2016,04,15,12,58,13.60
2016,04,15,12,59,13.50
2016,04,15,13,00,13.40
2016,04,15,13,01,13.40
2016,04,15,13,02,13.40
2016,04,15,13,03,13.30
2016,04,15,13,04,13.30
2016,04,15,13,05,13.30
2016,04,15,13,06,13.30
2016,04,15,13,07,13.30
2016,04,15,13,08,13.30
2016,04,15,13,09,13.30
2016,04,15,13,10,13.30
2016,04,15,13,11,13.30
2016,04,15,13,12,13.30
2016,04,15,13,13,13.30
2016,04,15,13,14,13.30
2016,04,15,13,15,13.30
2016,04,15,13,16,13.30
2016,04,15,13,17,13.40
2016,04,15,13,18,13.40
2016,04,15,13,19,13.40
2016,04,15,13,20,13.40
2016,04,15,13,21,13.40
2016,04,15,13,22,13.40
2016,04,15,13,23,13.30
2016,04,15,13,24,13.30
2016,04,15,13,25,13.30
2016,04,15,13,26,13.30
2016,04,15,13,27,13.30
2016,04,15,13,28,13.40
2016,04,15,13,29,13.30
2016,04,15,13,30,13.30
2016,04,15,13,31,13.30
2016,04,15,13,32,13.30
2016,04,15,13,33,13.30
2016,04,15,13,34,13.20
2016,04,15,13,35,13.20
2016,04,15,13,36,13.10
2016,04,15,13,37,13.10
2016,04,15,13,38,13.10
2016,04,15,13,39,13.10
2016,04,15,13,40,13.10
2016,04,15,13,41,13.10
2016,04,15,13,42,13.10
2016,04,15,13,43,13.10
2016,04,15,13,44,13.10
2016,04,15,13,45,13.10
2016,04,15,13,46,13.10
2016,04,15,13,47,13.10
2016,04,15,13,48,13.00
2016,04,15,13,49,13.00
2016,04,15,13,50,12.90
2016,04,15,13,51,12.90
2016,04,15,13,52,12.90
2016,04,15,13,53,12.90
2016,04,15,13,54,12.90
2016,04,15,13,55,12.90
2016,04,15,13,56,12.90
2016,04,15,13,57,12.90
2016,04,15,13,58,12.90
2016,04,15,13,59,13.00
2016,04,15,14,00,13.00
2016,04,15,14,01,13.10
2016,04,15,14,02,13.10
2016,04,15,14,03,13.20
2016,04,15,14,04,13.20
2016,04,15,14,05,13.20
2016,04,15,14,06,13.20
2016,04,15,14,07,13.20
2016,04,15,14,08,13.20
2016,04,15,14,09,13.10
2016,04,15,14,10,13.10
2016,04,15,14,11,13.10
2016,04,15,14,12,13.10
2016,04,15,14,13,13.10
2016,04,15,14,14,13.10
2016,04,15,14,15,13.10
2016,04,15,14,16,13.10
2016,04,15,14,17,13.10
2016,04,15,14,18,13.20
2016,04,15,14,19,13.20
2016,04,15,14,20,13.20
2016,04,15,14,21,13.30
2016,04,15,14,22,13.20
2016,04,15,14,23,13.30
2016,04,15,14,24,13.30
2016,04,15,14,25,13.40
2016,04,15,14,26,13.40
2016,04,15,14,27,13.40
2016,04,15,14,28,13.40
2016,04,15,14,29,13.30
2016,04,15,14,30,13.30
2016,04,15,14,31,13.20
2016,04,15,14,32,13.20
2016,04,15,14,33,13.20
2016,04,15,14,34,13.20
2016,04,15,14,35,13.20
2016,04,15,14,36,13.20
2016,04,15,14,37,13.30
2016,04,15,14,38,13.30
2016,04,15,14,39,13.30
2016,04,15,14,40,13.30
2016,04,15,14,41,13.30
2016,04,15,14,42,13.30
2016,04,15,14,43,13.30
2016,04,15,14,44,13.40
2016,04,15,14,45,13.40
2016,04,15,14,46,13.40
2016,04,15,14,47,13.40
2016,04,15,14,48,13.40
2016,04,15,14,49,13.40
2016,04,15,14,50,13.50
2016,04,15,14,51,13.50
2016,04,15,14,52,13.50
2016,04,15,14,53,13.50
2016,04,15,14,54,13.50
2016,04,15,14,55,13.60
2016,04,15,14,56,13.60
2016,04,15,14,57,13.60
2016,04,15,14,58,13.60
2016,04,15,14,59,13.60
2016,04,15,15,00,13.60
2016,04,15,15,01,13.60
2016,04,15,15,02,13.50
2016,04,15,15,03,13.50
2016,04,15,15,04,13.50
2016,04,15,15,05,13.50
2016,04,15,15,06,13.50
2016,04,15,15,07,13.50
2016,04,15,15,08,13.50
2016,04,15,15,09,13.60
2016,04,15,15,10,13.50
2016,04,15,15,11,13.50
2016,04,15,15,12,13.50
2016,04,15,15,13,13.40
2016,04,15,15,14,13.40
2016,04,15,15,15,13.40
2016,04,15,15,16,13.40
2016,04,15,15,17,13.40
2016,04,15,15,18,13.40
2016,04,15,15,19,13.40
2016,04,15,15,20,13.40
2016,04,15,15,21,13.50
2016,04,15,15,22,13.50
2016,04,15,15,23,13.50
2016,04,15,15,24,13.60
2016,04,15,15,25,13.50
2016,04,15,15,26,13.50
2016,04,15,15,27,13.50
2016,04,15,15,28,13.50
2016,04,15,15,29,13.40
2016,04,15,15,30,13.40
2016,04,15,15,31,13.40
2016,04,15,15,32,13.40
2016,04,15,15,33,13.40
2016,04,15,15,34,13.40
2016,04,15,15,35,13.40
2016,04,15,15,36,13.40
2016,04,15,15,37,13.50
2016,04,15,15,38,13.50
2016,04,15,15,39,13.50
2016,04,15,15,40,13.50
2016,04,15,15,41,13.40
2016,04,15,15,42,13.40
2016,04,15,15,43,13.40
2016,04,15,15,44,13.30
2016,04,15,15,45,13.30
2016,04,15,15,46,13.30
2016,04,15,15,47,13.30
2016,04,15,15,48,13.20
2016,04,15,15,49,13.20
2016,04,15,15,50,13.20
2016,04,15,15,51,13.20
2016,04,15,15,52,13.20
2016,04,15,15,53,13.10
2016,04,15,15,54,13.10
2016,04,15,15,55,13.10
2016,04,15,15,56,13.10
2016,04,15,15,57,13.10
2016,04,15,15,58,13.10
2016,04,15,15,59,13.10
2016,04,15,16,00,13.10
2016,04,15,16,01,13.10
2016,04,15,16,02,13.10
2016,04,15,16,03,13.10
2016,04,15,16,04,13.10
2016,04,15,16,05,13.00
2016,04,15,16,06,13.00
2016,04,15,16,07,13.00
2016,04,15,16,08,13.00
2016,04,15,16,09,13.00
2016,04,15,16,10,13.00
2016,04,15,16,11,13.00
2016,04,15,16,12,13.00
2016,04,15,16,13,13.00
2016,04,15,16,14,13.00
2016,04,15,16,15,13.00
2016,04,15,16,16,13.00
2016,04,15,16,17,13.00
2016,04,15,16,18,13.00
2016,04,15,16,19,13.00
2016,04,15,16,20,13.00
2016,04,15,16,21,13.10
2016,04,15,16,22,13.10
2016,04,15,16,23,13.00
2016,04,15,16,24,13.00
2016,04,15,16,25,13.00
2016,04,15,16,26,13.00
2016,04,15,16,27,12.90
2016,04,15,16,28,12.90
2016,04,15,16,29,12.90
2016,04,15,16,30,12.90
2016,04,15,16,31,12.90
2016,04,15,16,32,12.90
2016,04,15,16,33,12.90
2016,04,15,16,34,12.90
2016,04,15,16,35,12.90
2016,04,15,16,36,12.90
2016,04,15,16,37,12.90
2016,04,15,16,38,12.90
2016,04,15,16,39,12.90
2016,04,15,16,40,12.90
2016,04,15,16,41,12.90
2016,04,15,16,42,12.90
2016,04,15,16,43,12.90
2016,04,15,16,44,12.90
2016,04,15,16,45,12.90
2016,04,15,16,46,12.90
2016,04,15,16,47,12.90
2016,04,15,16,48,12.90
2016,04,15,16,49,12.90
2016,04,15,16,50,12.90
2016,04,15,16,51,12.90
2016,04,15,16,52,12.90
2016,04,15,16,53,12.90
2016,04,15,16,54,12.90
2016,04,15,16,55,12.90
2016,04,15,16,56,12.90
2016,04,15,16,57,12.90
2016,04,15,16,58,12.90
2016,04,15,16,59,13.00
2016,04,15,17,00,12.90
2016,04,15,17,01,12.90
2016,04,15,17,02,12.90
2016,04,15,17,03,12.90
2016,04,15,17,04,12.90
2016,04,15,17,05,12.90
2016,04,15,17,06,12.90
2016,04,15,17,07,12.90
2016,04,15,17,08,12.90
2016,04,15,17,09,12.90
2016,04,15,17,10,12.90
2016,04,15,17,11,12.90
2016,04,15,17,12,12.90
2016,04,15,17,13,12.90
2016,04,15,17,14,12.90
2016,04,15,17,15,12.90
2016,04,15,17,16,12.90
2016,04,15,17,17,12.90
2016,04,15,17,18,12.90
2016,04,15,17,19,12.90
2016,04,15,17,20,12.90
2016,04,15,17,21,12.90
2016,04,15,17,22,12.90
2016,04,15,17,23,12.80
2016,04,15,17,24,12.80
2016,04,15,17,25,12.80
2016,04,15,17,26,12.80
2016,04,15,17,27,12.80
2016,04,15,17,28,12.70
2016,04,15,17,29,12.70
2016,04,15,17,30,12.70
2016,04,15,17,31,12.70
2016,04,15,17,32,12.70
2016,04,15,17,33,12.70
2016,04,15,17,34,12.60
2016,04,15,17,35,12.60
2016,04,15,17,36,12.60
2016,04,15,17,37,12.50
2016,04,15,17,38,12.50
2016,04,15,17,39,12.40
2016,04,15,17,40,12.40
2016,04,15,17,41,12.40